Terminal Aerodrome Forecast
Issued by NWS

Home | Current Version | Previous Version | Text Only | Print | Product List | Glossary On
Versions: 1 2 3 4 5 6 7 8 9 10 11 12 13 14 15 16 17
000
FTUS41 KCAR 161400 AAA
TAFHUL
TAF AMD
KHUL 161446Z 1615/1712 21006KT P6SM -RA FEW007 OVC060
      TEMPO 1615/1617 -SHRA BKN025
     FM162000 22007KT P6SM BKN035
     FM162300 VRB03KT P6SM SCT040 BKN110
     FM170300 VRB02KT 3SM BR BKN200
     FM171030 24004KT P6SM SCT120=

USA.gov is the U.S. government's official web portal to all federal, state and local government web resources and services.